Find Starlink 11708

NORAD ID: 64238 Int'l Des: 2025-119 Owner: SPXS Country: US Constellation: starlink operational
別名: STARLINK-11708 [DTC] celestrak
LEOCIRCULAR

現在のビュー

3D地球を読み込み中...

About Starlink 11708

Starlink 11708 (NORAD 64238) is a starlink constellation satellite (v2 mini d2c) launched Jun 3, 2025 by SPXS of US. It operates in LEO, CIRCULAR orbit with a mass of 960.00 kg.

次回通過

Passes for default location (London). Set your location on the main map for personalized predictions.

高度履歴

Loading altitude history...

軌道要素

1 64238U 25119F 26238.47557900 .00125806 00000-0 96438-3 0 9994
2 64238 43.0005 266.0587 0001638 282.5024 77.5660 15.70957793 71947
Epoch: Aug 26, 2026 • Age: 9 hours

現在のステータス

高度 359.1 km
遠地点 / 近地点 N/A
速度 7.70 km/s
衛星直下点 39.56°N, 37.44°E
打ち上げ日 Jun 3, 2025
運用期間 1.2 years
タイプ internet

技術仕様

分類 Payload
質量 960.00 kg
乾燥質量 910.00 kg
総質量 960.00 kg
長さ 0.30 m
直径 4.10 m
スパン 29.00 m
形状 Box + pan
製造者 SPXS
バスタイプ Starlink V2MD
フェーズステータス In Orbit
所有者/国 SPXS/US

Most Searched